This is the latest recevied weather packets stored in our database for station/object JA0BES-13. If no packets are shown the sender has not sent any weather packets the latest 10 day(s).
| Time | Temp. | Humidity | Pressure | Rain* | Wind** | Luminosity | Snow |
|---|---|---|---|---|---|---|---|
| 1788302235 | 24.44° C | 100% | 1014 hPa | 0 mm | - | - | - |
| 1788301634 | 24.44° C | 100% | 1014 hPa | 0.51 mm | - | - | - |
| 1788301034 | 24.44° C | 100% | 1014.2 hPa | 0.51 mm | - | - | - |
| 1788300433 | 24.44° C | 100% | 1014.2 hPa | 0.51 mm | - | - | - |
| 1788299833 | 24.44° C | 100% | 1014.2 hPa | 0.51 mm | - | - | - |
| 1788299233 | 24.44° C | 100% | 1014 hPa | 0.51 mm | - | - | - |
| 1788298633 | 23.89° C | 100% | 1014.1 hPa | 0.51 mm | - | - | - |
| 1788298032 | 23.89° C | 100% | 1014.1 hPa | 0.51 mm | - | - | - |
| 1788297432 | 23.89° C | 100% | 1014.1 hPa | 0.51 mm | - | - | - |
| 1788296831 | 23.33° C | 100% | 1013.9 hPa | 0.51 mm | - | - | - |
| 1788266210 | 24.44° C | 100% | 1014.8 hPa | 0.51 mm | - | - | - |
| 1788265615 | 25° C | 100% | 1015.1 hPa | 0.51 mm | - | - | - |
| 1788265009 | 25° C | 100% | 1015 hPa | 0.51 mm | - | - | - |
| 1788264408 | 25° C | 100% | 1015.1 hPa | 0.51 mm | - | - | - |
| 1788263808 | 25.56° C | 100% | 1015.1 hPa | 0.51 mm | - | - | - |
| 1788263208 | 25.56° C | 100% | 1015 hPa | 0.51 mm | - | - | - |
| 1788262608 | 26.11° C | 100% | 1014.7 hPa | 0 mm | - | - | - |
| 1788262007 | 26.11° C | 100% | 1014.8 hPa | 0 mm | - | - | - |
| 1788261407 | 26.67° C | 100% | 1014.8 hPa | 0 mm | - | - | - |
| 1788260806 | 26.67° C | 100% | 1015.2 hPa | 0 mm | - | - | - |
| 1788260206 | 26.67° C | 100% | 1014.5 hPa | 0 mm | - | - | - |
| 1788259605 | 27.22° C | 100% | 1014.7 hPa | 0 mm | - | - | - |
| 1788259005 | 27.78° C | 100% | 1014.7 hPa | 0 mm | - | - | - |
| 1788258405 | 27.78° C | 99% | 1014.3 hPa | 0 mm | - | - | - |
| 1788257805 | 28.33° C | 99% | 1014.2 hPa | 0 mm | - | - | - |
* Rain since midnight (hover to see other rain measurements)
** Current wind speed in m/s (hover to see current wind gust speed)